Probability
3 3 3 2 1 1 2 2 3 3 3 2 2 2 1 0 0 0 0 0 1 2 2 1 1 1 0 0 0 0 0 2 5 6 4 2 1 0 0 1 2 2 1
2 2 2 1 0 0 1 1 2 2 2 1 1 1 0 0 0 0 0 0 0 1 1 0 0 0 0 0 0 0 0 2 5 5 3 1 0 0 0 0 1 1 1
1 0 0 0 0 0 0 0 1 1 1 0 0 0 0 0 0 0 0 0 0 0 0 0 0 0 0 0 0 0 1 3 4 4 3 1 0 0 0 0 0 0 1
0 0 0 0 0 0 0 0 0 0 0 0 0 0 0 0 0 0 0 0 0 0 0 0 0 0 0 0 0 0 2 4 5 4 3 2 1 0 0 0 0 0 0
0 0 0 0 0 0 0 0 0 0 0 0 0 0 0 0 0 0 0 0 0 0 0 0 0 0 0 0 0 0 2 4 4 4 3 2 1 0 0 0 0 0 0
0 0 0 0 0 0 0 0 0 0 0 0 0 0 0 0 0 0 0 0 0 0 0 0 0 0 0 0 0 0 0 1 2 2 3 2 1 0 0 0 0 0 0
0 0 0 0 0 0 0 0 0 0 0 0 0 0 0 0 0 0 0 0 0 0 0 0 0 0 0 0 0 0 0 0 0 1 2 2 1 0 0 0 0 0 0
0 0 0 0 0 0 0 0 0 0 0 0 0 0 0 0 0 0 0 0 0 0 0 0 0 0 0 0 0 0 0 0 0 0 1 1 0 0 0 0 0 0 0
0 0 0 0 0 0 0 0 0 0 0 0 0 0 0 0 0 0 0 0 0 0 0 0 0 0 0 0 0 0 0 0 0 0 0 0 0 0 0 0 0 0 0
0 0 0 0 0 0 0 0 0 0 0 0 0 0 0 0 0 0 0 0 0 0 0 0 0 0 0 0 0 0 0 0 0 0 0 0 0 0 0 0 0 0 0
0 0 0 0 0 0 0 0 0 0 0 0 0 0 0 0 0 0 0 0 0 0 0 0 0 0 0 0 0 0 0 0 0 0 0 0 0 0 0 0 0 0 0
0 0 0 0 0 0 0 0 0 0 0 0 0 0 0 0 0 0 0 0 0 0 0 0 0 0 0 0 0 0 0 0 0 0 0 0 0 0 0 0 0 0 0
0 0 0 0 0 0 0 0 0 0 0 0 0 0 0 0 0 0 0 0 0 0 0 0 0 0 0 0 0 0 0 0 0 0 0 0 0 0 0 0 0 0 0
0 0 0 0 0 0 0 0 0 0 0 0 0 0 0 0 0 0 0 0 0 0 0 0 0 0 0 0 0 0 0 0 0 0 0 0 0 0 0 0 0 0 0
0 0 0 0 0 0 0 0 0 0 0 0 0 0 0 0 0 0 0 0 0 0 0 0 0 0 0 0 0 0 0 0 0 0 0 0 0 0 0 0 0 0 0
0 0 0 0 0 0 0 0 0 0 0 0 0 0 0 0 0 0 0 0 0 0 0 0 0 0 0 0 0 0 0 0 0 0 0 0 0 0 0 0 0 0 0
0 0 0 0 0 0 0 0 0 0 0 0 0 0 0 0 0 0 0 0 0 0 0 0 0 0 0 0 0 0 0 0 0 0 0 0 0 0 0 0 0 0 0
0 0 0 0 0 0 0 0 0 0 0 0 0 0 0 0 0 0 0 0 0 0 0 0 0 0 0 0 0 0 0 0 0 0 0 0 0 0 0 0 0 0 0
0 0 0 0 0 0 0 0 0 0 0 0 0 0 0 0 0 0 0 0 0 0 0 0 0 0 0 0 0 0 0 0 0 0 0 0 0 0 0 0 0 0 0
0 0 0 0 0 0 0 0 0 0 0 0 0 0 0 0 0 0 0 0 0 0 0 0 0 0 0 0 0 0 0 0 0 0 0 0 0 0 0 0 0 0 0
0 0 0 0 0 0 0 0 0 0 0 0 0 0 0 0 0 0 0 0 0 0 0 0 0 0 0 0 0 0 0 0 0 0 0 0 0 0 0 0 0 0 0
0 0 0 0 0 0 0 0 0 0 0 0 0 0 0 0 0 0 0 0 0 0 0 0 0 0 0 0 0 0 0 0 0 0 0 0 0 0 0 0 0 0 0
0 0 0 0 0 0 0 0 0 0 0 0 0 0 0 0 0 0 0 0 0 0 0 0 0 0 0 0 0 0 0 0 0 0 0 0 0 0 0 0 0 0 0
0 0 0 0 0 0 0 0 0 0 0 0 0 0 0 0 0 0 0 0 0 0 0 0 0 0 0 0 0 0 0 0 0 0 0 0 0 0 0 0 0 0 0
0 0 0 0 0 0 0 0 0 0 0 0 0 0 0 0 0 0 0 0 0 0 0 0 0 0 0 0 0 0 0 0 0 0 0 0 0 0 0 0 0 0 0
0 0 0 0 0 0 0 0 0 0 0 0 0 0 0 0 0 0 0 0 0 0 0 0 0 0 0 0 0 0 0 0 0 0 0 0 0 0 0 0 0 0 0
Wind_Speed
5 4 4 4 4 3 3 4 4 4 4 4 4 5 5 5 5 4 5 5 5 5 4 4 4 4 3 2 2 2 2 1 2 1 2 2 3 4 4 4 5 5 6
4 4 4 3 3 3 4 4 4 4 4 4 4 5 5 5 5 5 5 5 5 5 5 5 5 3 3 3 2 1 0 1 3 3 2 2 3 4 4 4 4 4 5
4 3 3 3 3 3 3 3 3 4 4 5 5 5 5 5 5 5 5 5 5 5 5 6 5 5 4 3 2 1 1 1 2 4 3 2 3 3 4 5 5 4 5
3 3 3 3 3 3 3 3 3 4 4 4 4 4 5 5 6 5 5 5 5 5 5 5 5 5 4 3 2 1 1 2 3 3 3 3 3 4 4 4 4 3 3
3 3 3 3 3 3 3 3 3 3 4 4 4 4 4 5 6 7 6 5 5 5 5 5 5 5 6 5 3 1 1 2 2 3 3 4 3 3 3 3 4 4 4
3 3 3 3 3 3 3 3 3 3 3 4 4 4 5 5 7 8 7 5 5 5 5 4 4 3 3 2 3 3 2 0 1 2 3 4 4 3 3 3 4 4 3
4 3 3 3 4 3 3 3 3 4 4 4 4 5 5 6 7 7 8 5 5 5 5 5 5 4 3 2 3 3 2 1 1 1 2 3 4 3 3 3 3 2 2
4 4 3 3 3 3 3 4 4 4 4 4 4 4 5 6 6 7 8 4 5 5 5 5 4 5 6 4 2 3 3 3 1 1 2 2 3 2 2 2 2 3 3
4 4 3 2 2 2 3 3 3 3 3 3 4 4 5 5 6 7 9 3 4 5 5 6 6 5 7 7 2 3 4 4 5 4 3 3 3 2 0 1 2 2 2
4 3 3 2 2 2 3 2 3 2 2 3 4 4 4 5 6 7 9 3 4 3 4 5 7 6 7 7 2 2 3 3 3 5 5 5 5 5 4 2 1 1 1
4 3 3 3 2 2 2 2 2 2 3 3 3 3 3 4 4 6 8 4 4 4 3 4 5 6 6 6 3 3 2 1 2 3 3 4 4 3 3 2 1 1 1
3 3 3 3 2 3 2 2 1 1 1 1 1 1 2 3 4 4 5 5 7 3 3 4 4 5 5 4 3 3 1 3 1 2 3 2 2 2 2 1 0 1 2
4 3 3 3 2 1 1 1 0 0 0 1 1 1 2 2 2 1 1 2 4 3 3 4 4 4 3 1 2 1 3 1 1 2 3 2 2 2 1 2 3 3 3
4 3 2 2 2 2 0 0 1 1 2 2 2 2 2 1 2 1 0 2 3 3 1 2 5 5 3 0 2 3 1 2 2 1 2 1 1 1 2 2 2 2 2
3 3 2 2 2 1 1 2 3 4 4 4 4 3 3 2 4 6 6 5 5 5 5 2 1 0 1 1 1 1 1 2 1 1 0 1 1 1 1 1 2 3 3
4 3 2 2 2 2 2 3 1 1 1 2 4 5 3 2 3 4 4 5 5 6 6 2 1 1 1 1 1 1 1 0 0 0 1 1 1 1 2 2 3 4 3
3 2 2 2 2 2 1 1 2 3 5 6 5 4 4 4 4 4 5 5 6 5 4 2 1 1 1 1 1 1 1 1 1 1 1 2 2 2 3 3 3 3 4
4 3 2 2 1 1 1 1 1 1 2 3 6 7 6 6 6 5 5 5 5 5 3 2 1 1 1 1 2 1 1 1 2 2 2 2 3 4 4 4 4 4 5
4 3 2 1 2 2 2 2 1 1 1 1 1 5 7 7 7 6 5 5 4 2 2 2 2 2 2 2 2 2 3 3 3 3 3 3 4 4 4 5 4 4 6
4 2 3 3 3 3 3 2 2 2 2 2 2 1 3 4 4 5 6 5 4 3 3 3 3 3 3 3 3 3 3 3 3 4 4 3 4 4 5 6 6 6 6
5 6 7 6 4 3 3 3 2 3 3 2 2 1 1 4 4 3 3 3 3 3 3 4 4 4 4 4 4 3 4 4 4 4 4 4 4 5 5 6 7 7 7
4 4 5 5 4 3 3 3 4 4 3 4 3 4 7 6 5 4 3 3 3 3 4 4 5 4 4 4 4 4 4 4 4 4 4 5 5 6 6 7 7 7 8
5 5 4 4 4 4 5 5 4 4 4 4 4 3 4 5 5 4 4 4 4 4 4 4 5 5 5 4 4 5 5 5 4 4 5 6 6 7 7 7 9 9 9
6 6 5 5 5 5 5 5 5 5 5 5 5 5 5 4 5 6 6 5 5 5 5 6 6 7 8 7 6 6 5 4 5 5 7 8 8 8 8 8 9 10 10
7 6 6 6 5 5 5 5 5 5 5 5 5 6 6 6 6 6 6 6 7 7 7 7 6 7 9 10 9 7 2 1 4 6 7 8 9 10 10 11 10 10 11
8 7 7 6 6 6 6 6 6 6 6 6 6 6 6 7 6 6 6 7 7 7 7 7 8 9 10 9 8 6 3 4 5 6 7 8 10 9 10 10 12 11 12
Wind_Direction
86 82 75 65 59 50 46 44 34 23 15 12 14 12 12 12 7 4 6 2 359 360 356 353 345 339 328 315 291 273 260 222 173 128 88 87 86 88 89 90 99 103 102
85 79 78 71 62 51 48 36 29 22 15 18 16 14 15 17 14 13 10 9 7 6 6 4 359 357 352 339 325 308 165 156 159 148 121 108 91 100 103 100 98 99 102
94 89 82 70 61 50 42 31 25 24 22 21 24 22 17 17 19 17 12 11 13 13 10 8 7 6 5 2 359 35 110 134 145 146 138 121 112 119 120 111 106 109 114
100 92 77 58 49 45 42 38 30 26 23 24 29 25 17 17 18 16 17 17 17 20 19 15 11 9 7 3 21 51 109 135 151 146 138 135 124 132 136 131 129 130 124
115 98 84 68 53 45 40 39 38 32 28 26 28 30 27 31 20 7 8 21 21 22 24 23 28 28 19 4 4 29 117 155 154 151 144 135 133 148 146 146 134 133 128
121 99 80 70 58 48 40 39 41 37 29 27 30 31 36 36 19 1 346 14 21 21 20 17 32 48 55 54 47 30 10 322 155 159 148 143 147 149 145 154 148 148 142
115 95 81 66 56 42 40 43 39 37 36 38 34 36 45 41 17 360 346 352 25 25 17 12 19 30 15 59 111 140 109 81 275 243 145 150 151 151 159 158 151 151 124
114 101 89 71 60 44 46 49 45 42 40 41 40 42 45 44 21 357 334 348 28 29 25 20 19 20 14 1 71 85 88 84 92 151 113 135 133 142 175 167 153 143 153
115 106 97 86 69 62 62 58 51 47 47 47 50 36 35 42 21 353 331 16 43 43 38 25 15 31 7 338 51 93 98 106 95 82 66 87 91 104 205 197 181 185 167
117 110 101 87 66 61 64 61 57 53 48 45 51 34 29 31 27 358 335 4 36 41 55 57 43 21 5 350 26 79 91 90 103 120 129 149 152 148 176 219 237 218 185
126 122 112 99 92 81 76 70 60 52 45 36 43 43 45 37 47 23 359 355 7 14 32 43 45 25 16 5 360 55 55 25 110 118 123 135 144 153 169 171 252 286 305
136 124 116 113 97 91 85 77 63 39 76 61 47 21 82 76 41 38 14 1 339 1 17 31 45 20 12 6 29 51 331 283 142 118 112 114 124 121 110 109 48 332 334
151 135 125 123 118 107 112 95 137 160 6 53 44 31 53 73 101 119 312 315 322 338 18 16 339 311 282 177 134 246 259 241 92 96 98 98 94 100 155 184 188 203 218
150 140 143 147 143 127 190 117 34 36 32 30 34 26 36 40 33 38 178 197 216 222 238 208 232 252 247 168 192 208 218 40 31 68 83 98 118 169 209 210 221 231 233
150 151 159 154 129 141 106 26 360 32 21 344 359 3 358 12 29 358 335 349 355 12 334 282 263 175 140 115 96 78 102 145 155 108 104 171 187 221 234 240 254 256 254
164 172 175 166 156 174 156 151 144 290 247 262 289 309 343 13 344 331 327 324 322 325 308 310 358 7 21 53 68 96 128 117 3 269 270 284 279 267 273 270 263 266 272
167 167 189 177 172 187 181 182 161 187 219 229 237 249 276 308 303 299 300 300 289 285 274 292 329 337 340 346 342 332 339 31 334 283 276 281 281 278 274 273 274 278 281
182 167 215 198 192 188 199 225 237 243 192 190 203 218 235 255 266 271 282 283 245 223 253 287 298 299 300 311 315 317 306 281 259 271 280 282 281 281 283 284 285 290 291
198 184 198 200 208 205 222 232 228 254 274 264 197 178 207 226 234 243 245 259 278 284 281 283 290 292 294 292 287 284 283 282 283 286 282 280 282 282 286 288 287 283 278
194 180 252 242 224 217 225 236 236 241 248 253 256 228 186 220 231 207 210 235 260 270 281 288 291 291 284 277 269 263 258 260 260 258 265 271 276 280 283 285 290 288 281
197 177 201 236 236 236 240 244 245 251 254 254 252 88 302 262 263 269 262 240 252 269 277 282 277 269 265 263 270 271 272 272 271 272 273 272 275 277 280 280 279 281 285
219 208 212 232 236 239 252 253 253 254 255 257 250 186 187 240 262 268 268 268 265 262 266 272 277 279 284 282 279 271 270 270 270 272 275 276 272 271 275 278 282 287 289
231 231 226 231 240 228 239 247 253 259 261 264 266 260 219 238 254 261 265 265 266 268 268 263 265 270 272 273 276 275 274 275 275 277 276 275 277 277 277 279 282 285 287
229 233 235 233 237 240 243 249 255 259 262 264 267 268 265 257 261 267 269 268 265 264 263 263 266 272 274 272 267 263 263 274 278 271 271 276 280 282 282 282 283 286 288
234 234 239 240 242 246 249 255 260 265 266 266 266 266 265 264 263 262 260 261 262 261 262 262 262 265 269 271 271 273 278 224 259 279 274 272 275 279 282 284 285 287 288
235 236 241 246 247 251 254 257 259 264 266 266 267 269 270 269 268 268 266 263 263 262 262 261 261 264 267 267 267 264 233 217 228 243 262 267 271 274 279 280 284 285 287